This is the latest recevied weather packets stored in our database for station/object N9EA. If no packets are shown the sender has not sent any weather packets the latest 10 day(s).
| Time | Temp. | Humidity | Pressure | Rain* | Wind** | Luminosity | Snow |
|---|---|---|---|---|---|---|---|
| 1777843446 | 22.78° C | 40% | 1005.3 hPa | 0 mm | - | 372 W/m² | - |
| 1777843143 | 22.78° C | 38% | 1005.4 hPa | 0 mm | - | 440 W/m² | - |
| 1777842839 | 22.78° C | 40% | 1005.4 hPa | 0 mm | - | 436 W/m² | - |
| 1777842534 | 22.78° C | 38% | 1005.7 hPa | 0 mm | - | 469 W/m² | - |
| 1777842232 | 22.78° C | 38% | 1005.6 hPa | 0 mm | - | 481 W/m² | - |
| 1777841927 | 22.78° C | 38% | 1005.5 hPa | 0 mm | - | 444 W/m² | - |
| 1777841624 | 22.78° C | 39% | 1005.7 hPa | 0 mm | - | 508 W/m² | - |
| 1777841320 | 22.22° C | 39% | 1005.8 hPa | 0 mm | - | 520 W/m² | - |
| 1777841018 | 22.78° C | 39% | 1006 hPa | 0 mm | - | 530 W/m² | - |
| 1777840715 | 22.78° C | 40% | 1005.7 hPa | 0 mm | - | 540 W/m² | - |
| 1777840412 | 22.78° C | 41% | 1005.9 hPa | 0 mm | - | 550 W/m² | - |
| 1777840109 | 22.78° C | 40% | 1006 hPa | 0 mm | - | 562 W/m² | - |
| 1777839807 | 22.78° C | 40% | 1006.1 hPa | 0 mm | - | 499 W/m² | - |
| 1777839505 | 22.22° C | 41% | 1005.9 hPa | 0 mm | - | 585 W/m² | - |
| 1777839201 | 22.22° C | 40% | 1006 hPa | 0 mm | - | 591 W/m² | - |
| 1777838899 | 21.67° C | 41% | 1006 hPa | 0 mm | - | 604 W/m² | - |
| 1777838595 | 22.22° C | 40% | 1006.2 hPa | 0 mm | - | 614 W/m² | - |
| 1777838293 | 22.22° C | 40% | 1006.3 hPa | 0 mm | - | 623 W/m² | - |
| 1777837989 | 21.67° C | 41% | 1006.2 hPa | 0 mm | - | 601 W/m² | - |
| 1777837687 | 22.22° C | 41% | 1006.3 hPa | 0 mm | - | 639 W/m² | - |
| 1777837383 | 21.11° C | 42% | 1006.4 hPa | 0 mm | - | 648 W/m² | - |
| 1777837079 | 21.67° C | 40% | 1006.6 hPa | 0 mm | - | 658 W/m² | - |
| 1777836775 | 21.67° C | 41% | 1006.4 hPa | 0 mm | - | 668 W/m² | - |
| 1777836471 | 21.11° C | 42% | 1006.7 hPa | 0 mm | - | 677 W/m² | - |
| 1777836166 | 21.67° C | 43% | 1006.7 hPa | 0 mm | - | 683 W/m² | - |
* Rain latest hour (hover to see other rain measurements)
** Current wind speed in m/s (hover to see current wind gust speed)